Weather History for Ainsworth, NE

Change the Weather History Date:

Saturday, May 25, 2013

  Actual Average Record
Temperature  
Mean Temperature 70 °F -  
Max Temperature 82 °F 68 °F 125 °F (1997)
Min Temperature 59 °F 47 °F - (2002)
Cooling Degree Days 6    
Growing Degree Days 20 (Base 50)    
Moisture  
Dew Point 56 °F    
Average Humidity 62    
Maximum Humidity 94    
Minimum Humidity 39    
Precipitation  
Precipitation 0.00 in - - ()
Sea Level Pressure  
Sea Level Pressure 29.93 in    
Wind  
Wind Speed 9 mph (SE)    
Max Wind Speed 20 mph    
Max Gust Speed 25 mph    
Visibility 9 miles    
Events      
Averages and records for this station are not official NWS values.
T = Trace of Precipitation, MM = Missing Value Source: NWS Daily Summary

Daily Weather History Graph

Daily Weather History Graph

Search for Another Location

Airport:

Trip Planner

Search our weather history database for the weather conditions in past years. The results will help you decide how hot, cold, wet, or windy it might be!

Date:

Astronomy

May. 25, 2013 Rise Set
Actual Time 6:09 AM CDT 9:05 PM CDT
Civil Twilight 5:35 AM CDT 9:38 PM CDT
Nautical Twilight 4:53 AM CDT 10:21 PM CDT
Astronomical Twilight 4:03 AM CDT 11:11 PM CDT
Moon 9:54 PM CDT (5/25) 6:38 AM CDT (5/25)
Length of Visible Light 16h 03m
Length of Day
14h 56m
Full, 100% of the Moon is Illuminated
May 25
Full
May 31
Last Quarter
Jun 8
New
Jun 16
First Quarter
Jun 23
Full

Hourly Weather History & Observations

Time (CDT) Temp. Heat Index Dew Point Humidity Pressure Visibility Wind Dir Wind Speed Gust Speed Precip Events Conditions
12:15 AM 61.0 °F - 57.2 °F 87% 29.94 in 10.0 mi East 6.9 mph - N/A   Clear
12:35 AM 60.6 °F - 57.0 °F 88% 29.94 in 10.0 mi East 6.9 mph - N/A   Clear
12:55 AM 60.1 °F - 57.2 °F 90% 29.92 in 10.0 mi East 6.9 mph - N/A   Clear
1:15 AM 60.1 °F - 57.4 °F 91% 29.91 in 7.0 mi ENE 4.6 mph - N/A   Clear
1:35 AM 59.4 °F - 57.0 °F 92% 29.92 in 7.0 mi East 3.5 mph - N/A   Clear
1:55 AM 59.7 °F - 57.6 °F 93% 29.92 in 7.0 mi ESE 5.8 mph - N/A   Clear
2:15 AM 61.3 °F - 59.5 °F 94% 29.94 in 7.0 mi SE 8.1 mph - N/A   Clear
2:35 AM 62.4 °F - 59.9 °F 91% 29.94 in 7.0 mi SE 8.1 mph - N/A   Clear
2:55 AM 62.8 °F - 60.4 °F 92% 29.95 in 5.0 mi SSE 9.2 mph - N/A   Clear
3:15 AM 62.8 °F - 60.3 °F 91% 29.97 in 5.0 mi South 8.1 mph - N/A   Clear
3:35 AM 62.8 °F - 60.1 °F 91% 29.96 in 5.0 mi SSE 6.9 mph - N/A   Scattered Clouds
3:55 AM 63.7 °F - 59.4 °F 86% 29.97 in 7.0 mi SW 8.1 mph - N/A   Overcast
4:15 AM 65.1 °F - 54.0 °F 67% 29.96 in 10.0 mi SSW 13.8 mph - N/A   Mostly Cloudy
4:35 AM 64.4 °F - 53.1 °F 67% 29.95 in 10.0 mi SSW 6.9 mph - N/A   Scattered Clouds
4:55 AM 63.0 °F - 54.3 °F 73% 29.90 in 10.0 mi SE 15.0 mph - N/A   Clear
5:15 AM 64.2 °F - 51.1 °F 62% 29.91 in 10.0 mi SE 15.0 mph - N/A   Scattered Clouds
5:35 AM 64.2 °F - 51.8 °F 64% 29.92 in 10.0 mi SSE 16.1 mph - N/A   Clear
5:55 AM 63.0 °F - 52.0 °F 67% 29.96 in 10.0 mi West 6.9 mph - N/A   Clear
6:15 AM 63.9 °F - 51.8 °F 65% 29.95 in 10.0 mi Calm Calm - N/A   Clear
6:35 AM 62.1 °F - 51.1 °F 67% 29.96 in 10.0 mi Calm Calm - N/A   Clear
6:55 AM 61.3 °F - 51.3 °F 69% 29.97 in 10.0 mi Calm Calm - N/A   Clear
7:15 AM 60.6 °F - 52.5 °F 75% 29.97 in 10.0 mi Calm Calm - N/A   Clear
7:35 AM 62.6 °F - 53.1 °F 71% 29.97 in 10.0 mi South 8.1 mph - N/A   Clear
7:55 AM 63.7 °F - 52.0 °F 66% 29.98 in 10.0 mi South 10.4 mph - N/A   Clear
8:15 AM 64.0 °F - 52.2 °F 65% 29.97 in 10.0 mi South 5.8 mph - N/A   Clear
8:35 AM 64.0 °F - 52.2 °F 65% 29.98 in 10.0 mi SSW 3.5 mph - N/A   Clear
8:55 AM 66.6 °F - 52.5 °F 61% 29.98 in 10.0 mi South 6.9 mph - N/A   Clear
9:15 AM 68.5 °F - 51.8 °F 55% 29.98 in 10.0 mi SSE 11.5 mph - N/A   Clear
9:35 AM 70.2 °F - 51.3 °F 51% 29.98 in 10.0 mi SSE 16.1 mph - N/A   Clear
9:55 AM 70.5 °F - 50.9 °F 50% 29.98 in 10.0 mi SSE 12.7 mph - N/A   Clear
10:15 AM 72.0 °F - 51.6 °F 49% 29.98 in 10.0 mi South 9.2 mph - N/A   Clear
10:35 AM 73.2 °F - 50.7 °F 45% 29.98 in 10.0 mi SSE 9.2 mph 16.1 mph N/A   Clear
10:55 AM 73.4 °F - 51.8 °F 47% 29.98 in 10.0 mi South 9.2 mph - N/A   Clear
11:15 AM 75.7 °F - 53.1 °F 45% 29.98 in 10.0 mi South 15.0 mph 20.7 mph N/A   Clear
11:35 AM 76.6 °F - 53.1 °F 44% 29.97 in 10.0 mi SSE 16.1 mph 19.6 mph N/A   Clear
11:55 AM 78.3 °F - 53.6 °F 42% 29.97 in 10.0 mi South 13.8 mph 18.4 mph N/A   Clear
12:15 PM 79.3 °F - 54.3 °F 42% 29.96 in 10.0 mi South 15.0 mph 20.7 mph N/A   Clear
12:35 PM 79.3 °F - 54.7 °F 42% 29.96 in 10.0 mi SSE 9.2 mph 18.4 mph N/A   Clear
12:55 PM 79.9 °F - 55.2 °F 43% 29.95 in 10.0 mi South 9.2 mph - N/A   Clear
1:15 PM 79.9 °F - 54.7 °F 42% 29.95 in 10.0 mi South 10.4 mph - N/A   Clear
1:35 PM 79.9 °F - 55.4 °F 43% 29.94 in 10.0 mi SSE 5.8 mph - N/A   Scattered Clouds
1:55 PM 80.8 °F 80.7 °F 55.4 °F 42% 29.94 in 10.0 mi SE 10.4 mph 16.1 mph N/A   Scattered Clouds
2:15 PM 81.3 °F 80.9 °F 54.9 °F 40% 29.94 in 10.0 mi South 9.2 mph - N/A   Clear
2:35 PM 80.6 °F 80.4 °F 55.0 °F 41% 29.93 in 10.0 mi SSE 8.1 mph 17.3 mph N/A   Scattered Clouds
2:55 PM 81.3 °F 80.9 °F 55.0 °F 40% 29.93 in 10.0 mi SE 11.5 mph - N/A   Mostly Cloudy
3:15 PM 82.2 °F 81.5 °F 54.7 °F 39% 29.92 in 10.0 mi ESE 11.5 mph 17.3 mph N/A   Scattered Clouds
3:35 PM 82.2 °F 81.6 °F 55.9 °F 40% 29.92 in 10.0 mi SE 10.4 mph 19.6 mph N/A   Scattered Clouds
3:55 PM 82.4 °F 81.7 °F 54.9 °F 39% 29.92 in 10.0 mi ESE 16.1 mph - N/A   Scattered Clouds
4:15 PM 81.3 °F 81.0 °F 55.4 °F 41% 29.91 in 10.0 mi ESE 16.1 mph 23.0 mph N/A   Scattered Clouds
4:35 PM 82.4 °F 81.9 °F 56.3 °F 41% 29.91 in 10.0 mi SE 16.1 mph - N/A   Scattered Clouds
4:55 PM 81.1 °F 81.0 °F 56.3 °F 42% 29.91 in 10.0 mi SE 16.1 mph 21.9 mph N/A   Mostly Cloudy
5:15 PM 80.4 °F 80.6 °F 56.7 °F 44% 29.90 in 10.0 mi SE 18.4 mph 23.0 mph N/A   Mostly Cloudy
5:35 PM 79.7 °F - 56.5 °F 45% 29.90 in 10.0 mi ESE 19.6 mph 24.2 mph N/A   Mostly Cloudy
5:55 PM 79.7 °F - 56.7 °F 45% 29.90 in 10.0 mi SE 16.1 mph 24.2 mph N/A   Scattered Clouds
6:15 PM 79.3 °F - 56.1 °F 45% 29.90 in 10.0 mi ESE 17.3 mph - N/A   Scattered Clouds
6:35 PM 78.8 °F - 57.7 °F 48% 29.89 in 10.0 mi SE 15.0 mph 18.4 mph N/A   Mostly Cloudy
6:55 PM 78.4 °F - 57.6 °F 49% 29.88 in 10.0 mi SE 13.8 mph - N/A   Scattered Clouds
7:15 PM 78.1 °F - 57.9 °F 50% 29.88 in 10.0 mi SE 11.5 mph - N/A   Mostly Cloudy
7:35 PM 77.4 °F - 59.2 °F 53% 29.88 in 10.0 mi ESE 13.8 mph 17.3 mph N/A   Scattered Clouds
7:55 PM 76.3 °F - 59.7 °F 56% 29.88 in 10.0 mi ESE 11.5 mph - N/A   Clear
8:15 PM 75.2 °F - 61.2 °F 62% 29.89 in 10.0 mi SE 15.0 mph 25.3 mph N/A   Mostly Cloudy
8:35 PM 74.5 °F - 61.9 °F 65% 29.90 in 10.0 mi ESE 15.0 mph - N/A   Scattered Clouds
8:55 PM 73.4 °F - 62.6 °F 69% 29.89 in 10.0 mi ESE 13.8 mph - N/A   Clear
9:15 PM 72.5 °F - 63.3 °F 73% 29.90 in 10.0 mi ESE 13.8 mph - N/A   Clear
9:35 PM 71.6 °F - 63.3 °F 75% 29.90 in 10.0 mi East 15.0 mph 19.6 mph N/A   Clear
9:55 PM 70.9 °F - 63.5 °F 77% 29.91 in 10.0 mi East 13.8 mph 18.4 mph N/A   Clear
10:15 PM 70.2 °F - 63.5 °F 79% 29.90 in 10.0 mi East 15.0 mph - N/A   Clear
10:35 PM 69.4 °F - 63.7 °F 82% 29.90 in 7.0 mi East 16.1 mph - N/A   Clear
10:55 PM 69.1 °F - 64.2 °F 84% 29.89 in 7.0 mi ESE 13.8 mph - N/A   Clear
11:15 PM 68.5 °F - 64.4 °F 87% 29.89 in 7.0 mi ESE 13.8 mph - N/A   Clear
11:35 PM 68.5 °F - 64.6 °F 87% 29.89 in 7.0 mi East 13.8 mph - N/A   Clear
11:55 PM 68.2 °F - 64.6 °F 88% 29.88 in 7.0 mi ESE 13.8 mph 19.6 mph N/A   Clear